AMOS-2

Last updated on Sat Apr 08 2017 00:17:17 GMT+0000 (Coordinated Universal Time)

1 28132U 03059A 17095.79424443 -.00000200 00000-0 00000-0 0 9995 2 28132 0.5653 89.9573 0001980 249.5147 131.6977 0.99641506 48655
UTC large
Height (km)
Speed (km/s)
/
Latitude / Longitude
Inclination (degrees)
Orbital Period (minutes)
Azimuth
Elevation
Range (km)
Doppler Factor

Next 0 passes for location: London (51.5072 / 0.1276)

Sorry there are no passes over London.
AMOS-2